This demonstration page uses our WeatherBlox Daily Observations layout. Learn more.

Left ArrowRight Arrow

44.8408, -93.29828

Hourly Observations for November 8, 2019

Temp ( °F °C ) Dew Point ( °F °C ) Humidity (%) Winds ( mph kmh ) Pressure ( in mb ) Visibility ( mi km ) Precip ( " mm )
12:53 am 00:53 Clear 18 -7.8 10 -12.2 71 71 Calm 30.54 1034 10 16 0.00 0.00
1:53 am 01:53 Clear 17 -8.3 10 -12.2 74 74 SSW 5 7 30.52 1034 10 16 0.00 0.00
2:53 am 02:53 Clear 17 -8.3 11 -11.7 77 77 SE 5 7 30.50 1033 10 16 0.00 0.00
3:53 am 03:53 Clear 16 -8.9 11 -11.7 80 80 SE 5 7 30.48 1032 10 16 0.00 0.00
4:53 am 04:53 Clear 15 -9.4 10 -12.2 80 80 SE 5 7 30.47 1032 10 16 0.00 0.00
5:53 am 05:53 Mostly Cloudy 18 -7.8 10 -12.2 71 71 S 6 9 30.45 1031 10 16 0.00 0.00
6:53 am 06:53 Cloudy 18 -7.8 10 -12.2 71 71 SE 7 11 30.43 1030 10 16 0.00 0.00
7:53 am 07:53 Cloudy 20 -6.7 10 -12.2 65 65 S 12 19 30.41 1030 10 16 0.00 0.00
8:53 am 08:53 Mostly Cloudy 22 -5.6 11 -11.7 63 63 SSE 9 15 30.38 1029 10 16 0.00 0.00
9:53 am 09:53 Mostly Cloudy 25 -3.9 12 -11.1 58 58 S 13 20 30.35 1028 10 16 0.00 0.00
10:53 am 10:53 Mostly Cloudy 28 -2.2 12 -11.1 51 51 S 15 24 30.32 1027 10 16 0.00 0.00
11:53 am 11:53 Mostly Cloudy 30 -1.1 14 -10 51 51 S 15 24 30.28 1025 10 16 0.00 0.00
12:53 pm 12:53 Mostly Cloudy 31 -0.6 15 -9.4 52 52 S 16 26 30.23 1024 10 16 0.00 0.00
1:53 pm 13:53 Mostly Cloudy 32 0 16 -8.9 52 52 S 17 28 30.18 1022 10 16 0.00 0.00
2:53 pm 14:53 Cloudy 32 0 17 -8.3 54 54 S 12 19 30.15 1021 10 16 0.00 0.00
3:53 pm 15:53 Cloudy 32 0 18 -7.8 56 56 SSE 9 15 30.13 1020 10 16 0.00 0.00
4:53 pm 16:53 Cloudy 31 -0.6 19 -7.2 61 61 SSE 10 17 30.11 1020 10 16 0.00 0.00
5:53 pm 17:53 Cloudy 31 -0.6 20 -6.7 64 64 SSE 12 19 30.08 1019 10 16 0.00 0.00
6:53 pm 18:53 Cloudy 30 -1.1 20 -6.7 66 66 SSE 12 19 30.05 1018 10 16 0.00 0.00
7:53 pm 19:53 Mostly Cloudy 31 -0.6 21 -6.1 67 67 S 10 17 30.01 1016 10 16 0.00 0.00
8:53 pm 20:53 Mostly Cloudy 33 0.6 22 -5.6 64 64 S 10 17 29.97 1015 10 16 0.00 0.00
9:53 pm 21:53 Cloudy 35 1.7 23 -5 61 61 S 7 11 29.95 1014 10 16 0.00 0.00
10:53 pm 22:53 Cloudy 36 2.2 23 -5 59 59 SSW 8 13 29.93 1014 10 16 0.00 0.00
11:53 pm 23:53 Cloudy 36 2.2 23 -5 59 59 SSW 6 9 29.91 1013 10 16 0.00 0.00

Powered by AerisWeather